THORAD AGENA D DEB, 4155

Orbit data source: Space-Track

THORAD AGENA D DEB, 4155 is space debris in LEO originally from a launch on Tue, 30 Sep 1969 UTC launched from the Air Force Western Test Range (AFWTR). Debris objects in space refer to the collection of defunct objects orbiting the Earth. Examples of debris include non-operational satellites, rocket bodies, and fragments generated from explosions, collisions, or faulty payload assembly.

Loading next visibility...
Identifier
4155, 1969-082X
Orbit
LEO
Country
Flag of USUS
Related business
Manufacturer
Unknown
Mission
Spacecraft
Bus & Motor
Unknown
Mass
Unknown
Launch date (UTC)
1969-09-30 (57 years ago)
Launch vehicle
Unknown
Launch site
Air Force Western Test Range (AFWTR)
Object type
Payload
Rocket body
Debris
Shape & HBR
Unknown shape, 0.1 m
Radar Cross Section
Medium (>0.1 m² and <1 m²)

Expand to show TLE details & history
Last TLE update: 21 hours ago

TLE from 21 hours ago
0 THORAD AGENA D DEB
1 04155U 69082X   26173.36951466  .00000679  00000-0  23728-3 0  9996
2 04155  70.0474  44.7013 0056037 189.3649 170.6440 14.38397310940294
Epoch: 2026-06-22T08:52Z
TLE epoch observation values (Epoch: 2026-06-22T08:52:06.066Z)
Latitude
-0.00005°
Longitude
1.11959°
Altitude
805.661 km
Speed
7.43 km/s
True Right ascension
02h 58m 48s
True Declination
0° 00' 00"
Sunlit
Object was in daylight at epoch
Visualization orbit readout
Latitude
Unknown
Longitude
Unknown
Altitude
Unknown
Speed
Unknown
Apparent Right ascension
Unknown
Apparent Declination
Unknown
Sunlit
N/A
Visualization observer readout
Local Sidereal Time
17:05:07
Azimuth
Unknown
Elevation
Unknown
Doppler factor
Unknown
Orbital elements
Apogee altitude
801.807 km
Perigee altitude
721.787 km
Semi-major axis
7,139.934 km
Eccentricity
0.0056
Inclination
70.0474°
RAAN
44.7013°
Arg. of periapsis
189.3649°
True anomaly
170.74767°
Mean anomaly
170.644°
Eccentric anomaly
170.69591°
Mean motion
3.59751 °/min
Orbital period
100.07 mins
BSTAR
0.00023728
Loading maneuver chart data...
Computing Atmospheric mass density...

Documentation

Showing up to 5 results
|